Location: Anumalkud?ru
(16.4847°N, 80.6636°E)
Time: 10:27:40
(UTC+00:00)

ATLAS 3B R/B - Pass Details

Date: 11 April 2026
Orbit: 937 x 1256 km, 63.8° (Epoch: 20 May)

Event Time Altitude Azimuth Distance (km) Brightness Sun altitude
Rises 22:30:01 0° 341° (NNW) 4,108 5.8 -27.5°
Reaches altitude 10° 22:32:54 10° 345° (NNW) 3,105 5.1 -26.8°
Maximum altitude 22:40:12 61° 64° (ENE) 1,260 3.3 -25.1°
Drops below altitude 10° 22:46:56 10° 143° (SE) 2,873 5.2 -23.6°
Sets 22:49:30 0° 147° (SSE) 3,781 5.8 -23.0°
